Year,Month,Day,Hour,Minute,Value (Times are PST for temperature in C)
2006,09,29,00,00,13.10
2006,09,29,00,01,13.10
2006,09,29,00,02,13.00
2006,09,29,00,03,13.00
2006,09,29,00,04,13.00
2006,09,29,00,05,13.00
2006,09,29,00,06,13.00
2006,09,29,00,07,13.00
2006,09,29,00,08,13.00
2006,09,29,00,09,13.00
2006,09,29,00,10,13.00
2006,09,29,00,11,12.90
2006,09,29,00,12,12.90
2006,09,29,00,13,12.90
2006,09,29,00,14,12.90
2006,09,29,00,15,12.90
2006,09,29,00,16,12.90
2006,09,29,00,17,12.90
2006,09,29,00,18,12.90
2006,09,29,00,19,12.90
2006,09,29,00,20,12.90
2006,09,29,00,21,12.90
2006,09,29,00,22,12.90
2006,09,29,00,23,12.90
2006,09,29,00,24,12.90
2006,09,29,00,25,12.90
2006,09,29,00,26,12.90
2006,09,29,00,27,12.90
2006,09,29,00,28,12.90
2006,09,29,00,29,12.90
2006,09,29,00,30,12.90
2006,09,29,00,31,12.90
2006,09,29,00,32,12.90
2006,09,29,00,33,12.90
2006,09,29,00,34,12.90
2006,09,29,00,35,12.80
2006,09,29,00,36,12.80
2006,09,29,00,37,12.90
2006,09,29,00,38,12.90
2006,09,29,00,39,12.90
2006,09,29,00,40,12.90
2006,09,29,00,41,12.90
2006,09,29,00,42,12.90
2006,09,29,00,43,12.90
2006,09,29,00,44,12.90
2006,09,29,00,45,12.90
2006,09,29,00,46,12.90
2006,09,29,00,47,13.00
2006,09,29,00,48,13.00
2006,09,29,00,49,13.00
2006,09,29,00,50,13.00
2006,09,29,00,51,13.00
2006,09,29,00,52,13.00
2006,09,29,00,53,13.00
2006,09,29,00,54,13.00
2006,09,29,00,55,13.00
2006,09,29,00,56,13.00
2006,09,29,00,57,13.00
2006,09,29,00,58,13.00
2006,09,29,00,59,13.00
2006,09,29,01,00,13.00
2006,09,29,01,01,13.00
2006,09,29,01,02,13.10
2006,09,29,01,03,13.10
2006,09,29,01,04,13.10
2006,09,29,01,05,13.20
2006,09,29,01,06,13.20
2006,09,29,01,07,13.20
2006,09,29,01,08,13.30
2006,09,29,01,09,13.30
2006,09,29,01,10,13.30
2006,09,29,01,11,13.30
2006,09,29,01,12,13.30
2006,09,29,01,13,13.30
2006,09,29,01,14,13.30
2006,09,29,01,15,13.30
2006,09,29,01,16,13.30
2006,09,29,01,17,13.30
2006,09,29,01,18,13.30
2006,09,29,01,19,13.30
2006,09,29,01,20,13.30
2006,09,29,01,21,13.30
2006,09,29,01,22,13.30
2006,09,29,01,23,13.30
2006,09,29,01,24,13.30
2006,09,29,01,25,13.30
2006,09,29,01,26,13.30
2006,09,29,01,27,13.30
2006,09,29,01,28,13.30
2006,09,29,01,29,13.30
2006,09,29,01,30,13.20
2006,09,29,01,31,13.20
2006,09,29,01,32,13.20
2006,09,29,01,33,13.20
2006,09,29,01,34,13.20
2006,09,29,01,35,13.20
2006,09,29,01,36,13.20
2006,09,29,01,37,13.20
2006,09,29,01,38,13.20
2006,09,29,01,39,13.30
2006,09,29,01,40,13.30
2006,09,29,01,41,13.30
2006,09,29,01,42,13.30
2006,09,29,01,43,13.30
2006,09,29,01,44,13.30
2006,09,29,01,45,13.20
2006,09,29,01,46,13.20
2006,09,29,01,47,13.20
2006,09,29,01,48,13.20
2006,09,29,01,49,13.20
2006,09,29,01,50,13.10
2006,09,29,01,51,13.10
2006,09,29,01,52,13.10
2006,09,29,01,53,13.10
2006,09,29,01,54,13.10
2006,09,29,01,55,13.10
2006,09,29,01,56,13.10
2006,09,29,01,57,13.10
2006,09,29,01,58,13.10
2006,09,29,01,59,13.10
2006,09,29,02,00,13.10
2006,09,29,02,01,13.10
2006,09,29,02,02,13.00
2006,09,29,02,03,13.00
2006,09,29,02,04,13.00
2006,09,29,02,05,13.00
2006,09,29,02,06,13.00
2006,09,29,02,07,13.00
2006,09,29,02,08,13.00
2006,09,29,02,09,13.00
2006,09,29,02,10,13.00
2006,09,29,02,11,13.00
2006,09,29,02,12,13.00
2006,09,29,02,13,13.00
2006,09,29,02,14,13.00
2006,09,29,02,15,13.00
2006,09,29,02,16,13.00
2006,09,29,02,17,13.00
2006,09,29,02,18,13.00
2006,09,29,02,19,13.00
2006,09,29,02,20,12.90
2006,09,29,02,21,12.90
2006,09,29,02,22,12.90
2006,09,29,02,23,12.90
2006,09,29,02,24,12.90
2006,09,29,02,25,12.90
2006,09,29,02,26,12.90
2006,09,29,02,27,12.90
2006,09,29,02,28,12.90
2006,09,29,02,29,12.90
2006,09,29,02,30,12.80
2006,09,29,02,31,12.80
2006,09,29,02,32,12.80
2006,09,29,02,33,12.80
2006,09,29,02,34,12.80
2006,09,29,02,35,12.80
2006,09,29,02,36,12.80
2006,09,29,02,37,12.80
2006,09,29,02,38,12.70
2006,09,29,02,39,12.70
2006,09,29,02,40,12.70
2006,09,29,02,41,12.70
2006,09,29,02,42,12.70
2006,09,29,02,43,12.70
2006,09,29,02,44,12.70
2006,09,29,02,45,12.80
2006,09,29,02,46,12.80
2006,09,29,02,47,12.80
2006,09,29,02,48,12.80
2006,09,29,02,49,12.80
2006,09,29,02,50,12.80
2006,09,29,02,51,12.80
2006,09,29,02,52,12.80
2006,09,29,02,53,12.80
2006,09,29,02,54,12.80
2006,09,29,02,55,12.90
2006,09,29,02,56,12.80
2006,09,29,02,57,12.80
2006,09,29,02,58,12.80
2006,09,29,02,59,12.80
2006,09,29,03,00,12.80
2006,09,29,03,01,12.80
2006,09,29,03,02,12.80
2006,09,29,03,03,12.70
2006,09,29,03,04,12.70
2006,09,29,03,05,12.70
2006,09,29,03,06,12.70
2006,09,29,03,07,12.70
2006,09,29,03,08,12.70
2006,09,29,03,09,12.60
2006,09,29,03,10,12.60
2006,09,29,03,11,12.60
2006,09,29,03,12,12.60
2006,09,29,03,13,12.60
2006,09,29,03,14,12.60
2006,09,29,03,15,12.60
2006,09,29,03,16,12.60
2006,09,29,03,17,12.60
2006,09,29,03,18,12.50
2006,09,29,03,19,12.50
2006,09,29,03,20,12.50
2006,09,29,03,21,12.50
2006,09,29,03,22,12.50
2006,09,29,03,23,12.50
2006,09,29,03,24,12.50
2006,09,29,03,25,12.50
2006,09,29,03,26,12.50
2006,09,29,03,27,12.50
2006,09,29,03,28,12.50
2006,09,29,03,29,12.50
2006,09,29,03,30,12.50
2006,09,29,03,31,12.50
2006,09,29,03,32,12.40
2006,09,29,03,33,12.40
2006,09,29,03,34,12.40
2006,09,29,03,35,12.40
2006,09,29,03,36,12.40
2006,09,29,03,37,12.30
2006,09,29,03,38,12.40
2006,09,29,03,39,12.30
2006,09,29,03,40,12.30
2006,09,29,03,41,12.30
2006,09,29,03,42,12.30
2006,09,29,03,43,12.30
2006,09,29,03,44,12.30
2006,09,29,03,45,12.30
2006,09,29,03,46,12.30
2006,09,29,03,47,12.30
2006,09,29,03,48,12.30
2006,09,29,03,49,12.30
2006,09,29,03,50,12.30
2006,09,29,03,51,12.20
2006,09,29,03,52,12.20
2006,09,29,03,53,12.20
2006,09,29,03,54,12.20
2006,09,29,03,55,12.20
2006,09,29,03,56,12.20
2006,09,29,03,57,12.20
2006,09,29,03,58,12.10
2006,09,29,03,59,12.10
2006,09,29,04,00,12.10
2006,09,29,04,01,12.00
2006,09,29,04,02,12.00
2006,09,29,04,03,12.00
2006,09,29,04,04,11.90
2006,09,29,04,05,12.00
2006,09,29,04,06,12.00
2006,09,29,04,07,12.00
2006,09,29,04,08,12.00
2006,09,29,04,09,12.00
2006,09,29,04,10,12.00
2006,09,29,04,11,12.00
2006,09,29,04,12,12.10
2006,09,29,04,13,12.10
2006,09,29,04,14,12.20
2006,09,29,04,15,12.10
2006,09,29,04,16,12.10
2006,09,29,04,17,12.10
2006,09,29,04,18,12.10
2006,09,29,04,19,12.10
2006,09,29,04,20,12.10
2006,09,29,04,21,12.00
2006,09,29,04,22,12.00
2006,09,29,04,23,12.00
2006,09,29,04,24,12.00
2006,09,29,04,25,12.00
2006,09,29,04,26,11.90
2006,09,29,04,27,11.90
2006,09,29,04,28,11.90
2006,09,29,04,29,11.90
2006,09,29,04,30,11.80
2006,09,29,04,31,11.80
2006,09,29,04,32,11.80
2006,09,29,04,33,11.80
2006,09,29,04,34,11.80
2006,09,29,04,35,11.70
2006,09,29,04,36,11.70
2006,09,29,04,37,11.70
2006,09,29,04,38,11.70
2006,09,29,04,39,11.70
2006,09,29,04,40,11.60
2006,09,29,04,41,11.60
2006,09,29,04,42,11.60
2006,09,29,04,43,11.60
2006,09,29,04,44,11.60
2006,09,29,04,45,11.60
2006,09,29,04,46,11.60
2006,09,29,04,47,11.60
2006,09,29,04,48,11.60
2006,09,29,04,49,11.60
2006,09,29,04,50,11.60
2006,09,29,04,51,11.60
2006,09,29,04,52,11.60
2006,09,29,04,53,11.60
2006,09,29,04,54,11.60
2006,09,29,04,55,11.60
2006,09,29,04,56,11.60
2006,09,29,04,57,11.60
2006,09,29,04,58,11.60
2006,09,29,04,59,11.60
2006,09,29,05,00,11.60
2006,09,29,05,01,11.60
2006,09,29,05,02,11.60
2006,09,29,05,03,11.60
2006,09,29,05,04,11.60
2006,09,29,05,05,11.60
2006,09,29,05,06,11.60
2006,09,29,05,07,11.60
2006,09,29,05,08,11.60
2006,09,29,05,09,11.60
2006,09,29,05,10,11.60
2006,09,29,05,11,11.60
2006,09,29,05,12,11.60
2006,09,29,05,13,11.60
2006,09,29,05,14,11.60
2006,09,29,05,15,11.60
2006,09,29,05,16,11.60
2006,09,29,05,17,11.60
2006,09,29,05,18,11.60
2006,09,29,05,19,11.60
2006,09,29,05,20,11.50
2006,09,29,05,21,11.40
2006,09,29,05,22,11.40
2006,09,29,05,23,11.40
2006,09,29,05,24,11.40
2006,09,29,05,25,11.30
2006,09,29,05,26,11.30
2006,09,29,05,27,11.30
2006,09,29,05,28,11.30
2006,09,29,05,29,11.20
2006,09,29,05,30,11.20
2006,09,29,05,31,11.20
2006,09,29,05,32,11.20
2006,09,29,05,33,11.10
2006,09,29,05,34,11.10
2006,09,29,05,35,11.10
2006,09,29,05,36,11.10
2006,09,29,05,37,11.10
2006,09,29,05,38,11.10
2006,09,29,05,39,11.10
2006,09,29,05,40,11.10
2006,09,29,05,41,11.10
2006,09,29,05,42,11.10
2006,09,29,05,43,11.10
2006,09,29,05,44,11.10
2006,09,29,05,45,11.10
2006,09,29,05,46,11.10
2006,09,29,05,47,11.10
2006,09,29,05,48,11.10
2006,09,29,05,49,11.10
2006,09,29,05,50,11.10
2006,09,29,05,51,11.00
2006,09,29,05,52,11.00
2006,09,29,05,53,10.90
2006,09,29,05,54,10.90
2006,09,29,05,55,10.90
2006,09,29,05,56,10.90
2006,09,29,05,57,10.90
2006,09,29,05,58,10.90
2006,09,29,05,59,10.90
2006,09,29,06,00,10.80
2006,09,29,06,01,10.80
2006,09,29,06,02,10.80
2006,09,29,06,03,10.80
2006,09,29,06,04,10.80
2006,09,29,06,05,10.80
2006,09,29,06,06,10.80
2006,09,29,06,07,10.80
2006,09,29,06,08,10.80
2006,09,29,06,09,10.80
2006,09,29,06,10,10.80
2006,09,29,06,11,10.80
2006,09,29,06,12,10.80
2006,09,29,06,13,10.80
2006,09,29,06,14,10.90
2006,09,29,06,15,10.90
2006,09,29,06,16,10.90
2006,09,29,06,17,10.90
2006,09,29,06,18,10.90
2006,09,29,06,19,10.90
2006,09,29,06,20,10.90
2006,09,29,06,21,10.90
2006,09,29,06,22,10.90
2006,09,29,06,23,10.90
2006,09,29,06,24,10.90
2006,09,29,06,25,10.90
2006,09,29,06,26,10.90
2006,09,29,06,27,10.90
2006,09,29,06,28,10.90
2006,09,29,06,29,10.90
2006,09,29,06,30,10.90
2006,09,29,06,31,10.80
2006,09,29,06,32,10.80
2006,09,29,06,33,10.80
2006,09,29,06,34,10.80
2006,09,29,06,35,10.80
2006,09,29,06,36,10.80
2006,09,29,06,37,10.70
2006,09,29,06,38,10.70
2006,09,29,06,39,10.70
2006,09,29,06,40,10.70
2006,09,29,06,41,10.70
2006,09,29,06,42,10.70
2006,09,29,06,43,10.70
2006,09,29,06,44,10.70
2006,09,29,06,45,10.70
2006,09,29,06,46,10.60
2006,09,29,06,47,10.60
2006,09,29,06,48,10.60
2006,09,29,06,49,10.60
2006,09,29,06,50,10.60
2006,09,29,06,51,10.60
2006,09,29,06,52,10.60
2006,09,29,06,53,10.50
2006,09,29,06,54,10.40
2006,09,29,06,55,10.40
2006,09,29,06,56,10.40
2006,09,29,06,57,10.40
2006,09,29,06,58,10.40
2006,09,29,06,59,10.50
2006,09,29,07,00,10.60
2006,09,29,07,01,10.60
2006,09,29,07,02,10.60
2006,09,29,07,03,10.60
2006,09,29,07,04,10.70
2006,09,29,07,05,10.70
2006,09,29,07,06,10.70
2006,09,29,07,07,10.70
2006,09,29,07,08,10.70
2006,09,29,07,09,10.70
2006,09,29,07,10,10.70
2006,09,29,07,11,10.70
2006,09,29,07,12,10.70
2006,09,29,07,13,10.60
2006,09,29,07,14,10.60
2006,09,29,07,15,10.60
2006,09,29,07,16,10.60
2006,09,29,07,17,10.60
2006,09,29,07,18,10.60
2006,09,29,07,19,10.60
2006,09,29,07,20,10.60
2006,09,29,07,21,10.60
2006,09,29,07,22,10.60
2006,09,29,07,23,10.60
2006,09,29,07,24,10.60
2006,09,29,07,25,10.60
2006,09,29,07,26,10.60
2006,09,29,07,27,10.60
2006,09,29,07,28,10.60
2006,09,29,07,29,10.60
2006,09,29,07,30,10.60
2006,09,29,07,31,10.60
2006,09,29,07,32,10.60
2006,09,29,07,33,10.60
2006,09,29,07,34,10.60
2006,09,29,07,35,10.60
2006,09,29,07,36,10.60
2006,09,29,07,37,10.60
2006,09,29,07,38,10.60
2006,09,29,07,39,10.60
2006,09,29,07,40,10.60
2006,09,29,07,41,10.60
2006,09,29,07,42,10.60
2006,09,29,07,43,10.60
2006,09,29,07,44,10.60
2006,09,29,07,45,10.60
2006,09,29,07,46,10.60
2006,09,29,07,47,10.70
2006,09,29,07,48,10.70
2006,09,29,07,49,10.70
2006,09,29,07,50,10.80
2006,09,29,07,51,10.80
2006,09,29,07,52,10.80
2006,09,29,07,53,10.80
2006,09,29,07,54,10.90
2006,09,29,07,55,10.90
2006,09,29,07,56,10.90
2006,09,29,07,57,10.90
2006,09,29,07,58,10.90
2006,09,29,07,59,10.90
2006,09,29,08,00,10.90
2006,09,29,08,01,11.10
2006,09,29,08,02,11.10
2006,09,29,08,03,11.10
2006,09,29,08,04,11.20
2006,09,29,08,05,11.20
2006,09,29,08,06,11.30
2006,09,29,08,07,11.40
2006,09,29,08,08,11.40
2006,09,29,08,09,11.50
2006,09,29,08,10,11.60
2006,09,29,08,11,11.70
2006,09,29,08,12,11.80
2006,09,29,08,13,11.80
2006,09,29,08,14,11.90
2006,09,29,08,15,12.00
2006,09,29,08,16,12.00
2006,09,29,08,17,12.10
2006,09,29,08,18,12.10
2006,09,29,08,19,12.20
2006,09,29,08,20,12.20
2006,09,29,08,21,12.30
2006,09,29,08,22,12.30
2006,09,29,08,23,12.30
2006,09,29,08,24,12.40
2006,09,29,08,25,12.40
2006,09,29,08,26,12.40
2006,09,29,08,27,12.50
2006,09,29,08,28,12.50
2006,09,29,08,29,12.50
2006,09,29,08,30,12.50
2006,09,29,08,31,12.60
2006,09,29,08,32,12.60
2006,09,29,08,33,12.60
2006,09,29,08,34,12.70
2006,09,29,08,35,12.70
2006,09,29,08,36,12.70
2006,09,29,08,37,12.60
2006,09,29,08,38,12.60
2006,09,29,08,39,12.60
2006,09,29,08,40,12.60
2006,09,29,08,41,12.60
2006,09,29,08,42,12.60
2006,09,29,08,43,12.70
2006,09,29,08,44,12.70
2006,09,29,08,45,12.70
2006,09,29,08,46,12.70
2006,09,29,08,47,12.70
2006,09,29,08,48,12.70
2006,09,29,08,49,12.80
2006,09,29,08,50,12.80
2006,09,29,08,51,12.80
2006,09,29,08,52,12.80
2006,09,29,08,53,12.80
2006,09,29,08,54,12.80
2006,09,29,08,55,12.80
2006,09,29,08,56,12.80
2006,09,29,08,57,12.80
2006,09,29,08,58,12.80
2006,09,29,08,59,12.80
2006,09,29,09,00,12.80
2006,09,29,09,01,12.90
2006,09,29,09,02,12.90
2006,09,29,09,03,12.90
2006,09,29,09,04,13.00
2006,09,29,09,05,13.00
2006,09,29,09,06,13.00
2006,09,29,09,07,13.00
2006,09,29,09,08,13.00
2006,09,29,09,09,13.10
2006,09,29,09,10,13.10
2006,09,29,09,11,13.10
2006,09,29,09,12,13.20
2006,09,29,09,13,13.20
2006,09,29,09,14,13.20
2006,09,29,09,15,13.10
2006,09,29,09,16,13.10
2006,09,29,09,17,13.10
2006,09,29,09,18,13.10
2006,09,29,09,19,13.20
2006,09,29,09,20,13.20
2006,09,29,09,21,13.20
2006,09,29,09,22,13.20
2006,09,29,09,23,13.30
2006,09,29,09,24,13.30
2006,09,29,09,25,13.30
2006,09,29,09,26,13.30
2006,09,29,09,27,13.30
2006,09,29,09,28,13.30
2006,09,29,09,29,13.30
2006,09,29,09,30,13.30
2006,09,29,09,31,13.30
2006,09,29,09,32,13.40
2006,09,29,09,33,13.50
2006,09,29,09,34,13.50
2006,09,29,09,35,13.60
2006,09,29,09,36,13.70
2006,09,29,09,37,13.80
2006,09,29,09,38,13.90
2006,09,29,09,39,14.10
2006,09,29,09,40,14.10
2006,09,29,09,41,14.20
2006,09,29,09,42,14.20
2006,09,29,09,43,14.40
2006,09,29,09,44,14.50
2006,09,29,09,45,14.60
2006,09,29,09,46,14.70
2006,09,29,09,47,14.70
2006,09,29,09,48,14.80
2006,09,29,09,49,14.80
2006,09,29,09,50,14.90
2006,09,29,09,51,15.00
2006,09,29,09,52,15.00
2006,09,29,09,53,15.00
2006,09,29,09,54,15.00
2006,09,29,09,55,15.00
2006,09,29,09,56,15.00
2006,09,29,09,57,15.00
2006,09,29,09,58,15.10
2006,09,29,09,59,15.10
2006,09,29,10,00,15.10
2006,09,29,10,01,15.10
2006,09,29,10,02,15.00
2006,09,29,10,03,15.00
2006,09,29,10,04,14.90
2006,09,29,10,05,14.90
2006,09,29,10,06,14.80
2006,09,29,10,07,14.80
2006,09,29,10,08,14.90
2006,09,29,10,09,14.90
2006,09,29,10,10,15.00
2006,09,29,10,11,15.00
2006,09,29,10,12,15.00
2006,09,29,10,13,15.10
2006,09,29,10,14,15.10
2006,09,29,10,15,15.20
2006,09,29,10,16,15.30
2006,09,29,10,17,15.30
2006,09,29,10,18,15.30
2006,09,29,10,19,15.40
2006,09,29,10,20,15.30
2006,09,29,10,21,15.30
2006,09,29,10,22,15.20
2006,09,29,10,23,15.10
2006,09,29,10,24,15.00
2006,09,29,10,25,15.00
2006,09,29,10,26,14.90
2006,09,29,10,27,14.90
2006,09,29,10,28,15.00
2006,09,29,10,29,15.10
2006,09,29,10,30,15.10
2006,09,29,10,31,15.10
2006,09,29,10,32,15.20
2006,09,29,10,33,15.30
2006,09,29,10,34,15.30
2006,09,29,10,35,15.30
2006,09,29,10,36,15.40
2006,09,29,10,37,15.40
2006,09,29,10,38,15.40
2006,09,29,10,39,15.50
2006,09,29,10,40,15.60
2006,09,29,10,41,15.60
2006,09,29,10,42,15.60
2006,09,29,10,43,15.70
2006,09,29,10,44,15.70
2006,09,29,10,45,15.80
2006,09,29,10,46,15.80
2006,09,29,10,47,15.80
2006,09,29,10,48,15.80
2006,09,29,10,49,15.90
2006,09,29,10,50,15.90
2006,09,29,10,51,15.90
2006,09,29,10,52,15.90
2006,09,29,10,53,16.00
2006,09,29,10,54,16.10
2006,09,29,10,55,16.10
2006,09,29,10,56,16.10
2006,09,29,10,57,16.10
2006,09,29,10,58,16.10
2006,09,29,10,59,16.10
2006,09,29,11,00,16.20
2006,09,29,11,01,16.20
2006,09,29,11,02,16.30
2006,09,29,11,03,16.40
2006,09,29,11,04,16.30
2006,09,29,11,05,16.30
2006,09,29,11,06,16.30
2006,09,29,11,07,16.40
2006,09,29,11,08,16.40
2006,09,29,11,09,16.40
2006,09,29,11,10,16.50
2006,09,29,11,11,16.60
2006,09,29,11,12,16.70
2006,09,29,11,13,16.70
2006,09,29,11,14,16.70
2006,09,29,11,15,16.70
2006,09,29,11,16,16.70
2006,09,29,11,17,16.60
2006,09,29,11,18,16.60
2006,09,29,11,19,16.60
2006,09,29,11,20,16.40
2006,09,29,11,21,16.30
2006,09,29,11,22,16.20
2006,09,29,11,23,16.20
2006,09,29,11,24,16.20
2006,09,29,11,25,16.10
2006,09,29,11,26,16.00
2006,09,29,11,27,15.80
2006,09,29,11,28,15.70
2006,09,29,11,29,15.60
2006,09,29,11,30,15.60
2006,09,29,11,31,15.50
2006,09,29,11,32,15.40
2006,09,29,11,33,15.30
2006,09,29,11,34,15.20
2006,09,29,11,35,15.20
2006,09,29,11,36,15.20
2006,09,29,11,37,15.20
2006,09,29,11,38,15.20
2006,09,29,11,39,15.20
2006,09,29,11,40,15.20
2006,09,29,11,41,15.30
2006,09,29,11,42,15.40
2006,09,29,11,43,15.50
2006,09,29,11,44,15.50
2006,09,29,11,45,15.50
2006,09,29,11,46,15.50
2006,09,29,11,47,15.50
2006,09,29,11,48,15.40
2006,09,29,11,49,15.40
2006,09,29,11,50,15.40
2006,09,29,11,51,15.30
2006,09,29,11,52,15.30
2006,09,29,11,53,15.30
2006,09,29,11,54,15.40
2006,09,29,11,55,15.40
2006,09,29,11,56,15.50
2006,09,29,11,57,15.50
2006,09,29,11,58,15.60
2006,09,29,11,59,15.70
2006,09,29,12,00,15.70
2006,09,29,12,01,15.70
2006,09,29,12,02,15.80
2006,09,29,12,03,15.80
2006,09,29,12,04,15.80
2006,09,29,12,05,15.80
2006,09,29,12,06,15.80
2006,09,29,12,07,15.70
2006,09,29,12,08,15.70
2006,09,29,12,09,15.60
2006,09,29,12,10,15.60
2006,09,29,12,11,15.60
2006,09,29,12,12,15.60
2006,09,29,12,13,15.60
2006,09,29,12,14,15.60
2006,09,29,12,15,15.60
2006,09,29,12,16,15.60
2006,09,29,12,17,15.70
2006,09,29,12,18,15.80
2006,09,29,12,19,15.80
2006,09,29,12,20,15.80
2006,09,29,12,21,15.80
2006,09,29,12,22,15.80
2006,09,29,12,23,15.80
2006,09,29,12,24,15.80
2006,09,29,12,25,15.80
2006,09,29,12,26,15.80
2006,09,29,12,27,15.70
2006,09,29,12,28,15.70
2006,09,29,12,29,15.70
2006,09,29,12,30,15.70
2006,09,29,12,31,15.70
2006,09,29,12,32,15.70
2006,09,29,12,33,15.70
2006,09,29,12,34,15.70
2006,09,29,12,35,15.80
2006,09,29,12,36,15.80
2006,09,29,12,37,15.80
2006,09,29,12,38,15.70
2006,09,29,12,39,15.70
2006,09,29,12,40,15.80
2006,09,29,12,41,15.80
2006,09,29,12,42,15.80
2006,09,29,12,43,15.80
2006,09,29,12,44,15.80
2006,09,29,12,45,15.70
2006,09,29,12,46,15.70
2006,09,29,12,47,15.70
2006,09,29,12,48,15.70
2006,09,29,12,49,15.80
2006,09,29,12,50,15.80
2006,09,29,12,51,15.80
2006,09,29,12,52,15.80
2006,09,29,12,53,15.90
2006,09,29,12,54,15.90
2006,09,29,12,55,15.80
2006,09,29,12,56,15.80
2006,09,29,12,57,15.80
2006,09,29,12,58,15.80
2006,09,29,12,59,15.80
2006,09,29,13,00,15.80
2006,09,29,13,01,15.80
2006,09,29,13,02,15.80
2006,09,29,13,03,15.90
2006,09,29,13,04,16.00
2006,09,29,13,05,16.10
2006,09,29,13,06,16.10
2006,09,29,13,07,16.20
2006,09,29,13,08,16.20
2006,09,29,13,09,16.20
2006,09,29,13,10,16.20
2006,09,29,13,11,16.20
2006,09,29,13,12,16.10
2006,09,29,13,13,16.10
2006,09,29,13,14,16.10
2006,09,29,13,15,16.10
2006,09,29,13,16,16.10
2006,09,29,13,17,16.10
2006,09,29,13,18,16.10
2006,09,29,13,19,16.10
2006,09,29,13,20,16.10
2006,09,29,13,21,16.10
2006,09,29,13,22,16.10
2006,09,29,13,23,16.10
2006,09,29,13,24,16.10
2006,09,29,13,25,16.10
2006,09,29,13,26,16.20
2006,09,29,13,27,16.30
2006,09,29,13,28,16.30
2006,09,29,13,29,16.30
2006,09,29,13,30,16.30
2006,09,29,13,31,16.30
2006,09,29,13,32,16.40
2006,09,29,13,33,16.40
2006,09,29,13,34,16.40
2006,09,29,13,35,16.40
2006,09,29,13,36,16.40
2006,09,29,13,37,16.40
2006,09,29,13,38,16.40
2006,09,29,13,39,16.40
2006,09,29,13,40,16.40
2006,09,29,13,41,16.40
2006,09,29,13,42,16.40
2006,09,29,13,43,16.40
2006,09,29,13,44,16.40
2006,09,29,13,45,16.40
2006,09,29,13,46,16.40
2006,09,29,13,47,16.40
2006,09,29,13,48,16.40
2006,09,29,13,49,16.40
2006,09,29,13,50,16.40
2006,09,29,13,51,16.40
2006,09,29,13,52,16.40
2006,09,29,13,53,16.40
2006,09,29,13,54,16.50
2006,09,29,13,55,16.60
2006,09,29,13,56,16.50
2006,09,29,13,57,16.40
2006,09,29,13,58,16.60
2006,09,29,13,59,16.60
2006,09,29,14,00,16.70
2006,09,29,14,01,16.70
2006,09,29,14,02,16.80
2006,09,29,14,03,16.90
2006,09,29,14,04,16.90
2006,09,29,14,05,16.90
2006,09,29,14,06,17.00
2006,09,29,14,07,17.10
2006,09,29,14,08,17.10
2006,09,29,14,09,17.00
2006,09,29,14,10,17.00
2006,09,29,14,11,16.90
2006,09,29,14,12,16.90
2006,09,29,14,13,16.80
2006,09,29,14,14,16.70
2006,09,29,14,15,16.70
2006,09,29,14,16,16.60
2006,09,29,14,17,16.60
2006,09,29,14,18,16.60
2006,09,29,14,19,16.60
2006,09,29,14,20,16.50
2006,09,29,14,21,16.40
2006,09,29,14,22,16.40
2006,09,29,14,23,16.30
2006,09,29,14,24,16.20
2006,09,29,14,25,16.20
2006,09,29,14,26,16.20
2006,09,29,14,27,16.20
2006,09,29,14,28,16.30
2006,09,29,14,29,16.40
2006,09,29,14,30,16.40
2006,09,29,14,31,16.40
2006,09,29,14,32,16.40
2006,09,29,14,33,16.40
2006,09,29,14,34,16.40
2006,09,29,14,35,16.40
2006,09,29,14,36,16.40
2006,09,29,14,37,16.40
2006,09,29,14,38,16.40
2006,09,29,14,39,16.50
2006,09,29,14,40,16.60
2006,09,29,14,41,16.60
2006,09,29,14,42,16.60
2006,09,29,14,43,16.60
2006,09,29,14,44,16.70
2006,09,29,14,45,16.70
2006,09,29,14,46,16.70
2006,09,29,14,47,16.70
2006,09,29,14,48,16.70
2006,09,29,14,49,16.70
2006,09,29,14,50,16.70
2006,09,29,14,51,16.60
2006,09,29,14,52,16.60
2006,09,29,14,53,16.60
2006,09,29,14,54,16.60
2006,09,29,14,55,16.60
2006,09,29,14,56,16.70
2006,09,29,14,57,16.70
2006,09,29,14,58,16.70
2006,09,29,14,59,16.80
2006,09,29,15,00,16.80
2006,09,29,15,01,16.80
2006,09,29,15,02,16.90
2006,09,29,15,03,16.90
2006,09,29,15,04,16.90
2006,09,29,15,05,17.00
2006,09,29,15,06,17.00
2006,09,29,15,07,16.90
2006,09,29,15,08,16.90
2006,09,29,15,09,16.90
2006,09,29,15,10,16.90
2006,09,29,15,11,16.90
2006,09,29,15,12,16.90
2006,09,29,15,13,16.80
2006,09,29,15,14,16.80
2006,09,29,15,15,16.70
2006,09,29,15,16,16.70
2006,09,29,15,17,16.70
2006,09,29,15,18,16.70
2006,09,29,15,19,16.70
2006,09,29,15,20,16.60
2006,09,29,15,21,16.50
2006,09,29,15,22,16.40
2006,09,29,15,23,16.40
2006,09,29,15,24,16.40
2006,09,29,15,25,16.40
2006,09,29,15,26,16.40
2006,09,29,15,27,16.50
2006,09,29,15,28,16.60
2006,09,29,15,29,16.70
2006,09,29,15,30,16.60
2006,09,29,15,31,16.50
2006,09,29,15,32,16.40
2006,09,29,15,33,16.40
2006,09,29,15,34,16.30
2006,09,29,15,35,16.30
2006,09,29,15,36,16.30
2006,09,29,15,37,16.50
2006,09,29,15,38,16.60
2006,09,29,15,39,16.60
2006,09,29,15,40,16.60
2006,09,29,15,41,16.60
2006,09,29,15,42,16.60
2006,09,29,15,43,16.60
2006,09,29,15,44,16.60
2006,09,29,15,45,16.50
2006,09,29,15,46,16.40
2006,09,29,15,47,16.40
2006,09,29,15,48,16.30
2006,09,29,15,49,16.20
2006,09,29,15,50,16.10
2006,09,29,15,51,16.00
2006,09,29,15,52,15.90
2006,09,29,15,53,15.90
2006,09,29,15,54,16.00
2006,09,29,15,55,16.10
2006,09,29,15,56,16.10
2006,09,29,15,57,16.10
2006,09,29,15,58,16.10
2006,09,29,15,59,16.30
2006,09,29,16,00,16.30
2006,09,29,16,01,16.40
2006,09,29,16,02,16.40
2006,09,29,16,03,16.40
2006,09,29,16,04,16.40
2006,09,29,16,05,16.50
2006,09,29,16,06,16.60
2006,09,29,16,07,16.70
2006,09,29,16,08,16.70
2006,09,29,16,09,16.70
2006,09,29,16,10,16.80
2006,09,29,16,11,16.90
2006,09,29,16,12,16.90
2006,09,29,16,13,16.90
2006,09,29,16,14,16.90
2006,09,29,16,15,16.90
2006,09,29,16,16,16.80
2006,09,29,16,17,16.70
2006,09,29,16,18,16.80
2006,09,29,16,19,16.80
2006,09,29,16,20,16.80
2006,09,29,16,21,16.70
2006,09,29,16,22,16.80
2006,09,29,16,23,16.80
2006,09,29,16,24,16.90
2006,09,29,16,25,16.90
2006,09,29,16,26,17.00
2006,09,29,16,27,17.00
2006,09,29,16,28,17.00
2006,09,29,16,29,17.00
2006,09,29,16,30,17.00
2006,09,29,16,31,17.00
2006,09,29,16,32,17.00
2006,09,29,16,33,17.10
2006,09,29,16,34,17.10
2006,09,29,16,35,17.10
2006,09,29,16,36,17.10
2006,09,29,16,37,17.00
2006,09,29,16,38,17.10
2006,09,29,16,39,17.00
2006,09,29,16,40,16.90
2006,09,29,16,41,16.90
2006,09,29,16,42,16.80
2006,09,29,16,43,16.80
2006,09,29,16,44,16.70
2006,09,29,16,45,16.70
2006,09,29,16,46,16.70
2006,09,29,16,47,16.70
2006,09,29,16,48,16.70
2006,09,29,16,49,16.70
2006,09,29,16,50,16.60
2006,09,29,16,51,16.40
2006,09,29,16,52,16.30
2006,09,29,16,53,16.20
2006,09,29,16,54,16.10
2006,09,29,16,55,16.10
2006,09,29,16,56,16.10
2006,09,29,16,57,16.10
2006,09,29,16,58,16.00
2006,09,29,16,59,15.90
2006,09,29,17,00,15.80
2006,09,29,17,01,15.80
2006,09,29,17,02,15.80
2006,09,29,17,03,15.70
2006,09,29,17,04,15.70
2006,09,29,17,05,15.70
2006,09,29,17,06,15.70
2006,09,29,17,07,15.70
2006,09,29,17,08,15.70
2006,09,29,17,09,15.70
2006,09,29,17,10,15.70
2006,09,29,17,11,15.60
2006,09,29,17,12,15.60
2006,09,29,17,13,15.60
2006,09,29,17,14,15.70
2006,09,29,17,15,15.70
2006,09,29,17,16,15.80
2006,09,29,17,17,15.80
2006,09,29,17,18,15.90
2006,09,29,17,19,15.90